Regional Weather Roundup
Issued by NWS Pendleton, OR

Home | Current Version | Previous Version | Text Only | Print | Product List | Glossary On
Versions: 1 2 3 4 5 6 7 8 9 10 11 12 13 14 15 16 17 18 19 20 21 22 23 24 25 26 27 28 29 30 31 32 33 34 35 36 37 38 39 40 41 42 43 44 45 46 47 48 49 50
616
ASUS46 KPDT 071504
RWRPDT
PENDLETON REGIONAL WEATHER ROUNDUP
NATIONAL WEATHER SERVICE PENDLETON OREGON
700 AM PST WED DEC 7 2016

NOTE: FAIR INDICATES FEW OR NO CLOUDS BELOW 12,000 FEET WITH NO
SIGNIFICANT WEATHER AND/OR OBSTRUCTIONS TO VISIBILITY.

# INDICATES UNOFFICIAL STATION AND DATA

WAZ520-071610-
EAST SLOPES OF WASHINGTON CASCADES

CITY            SKY/WX      TMP DP  RH  WIND    PRES   REMARKS
#CLE ELUM HS    N/A         23  15  71  CALM    30.29R
#CLE ELUM LAKE  N/A         18  15  88  CALM    30.45R
#GLENWOOD       N/A         21  19  92  CALM    30.46R
#MANASTASH CYN  N/A         21  11  65  CALM    30.27R
#NELSON 3SW     N/A         18  17  96  CALM    30.70R
#NILE           N/A         23  16  74  CALM    29.70R
#TEANAWAY 4NE   N/A         22  16  77  CALM    N/A
#TROUT LAKE 1NE N/A         23  20  88  CALM    30.45R
#TROUT LAKE 1E  N/A         22  21  96  CALM    30.30R
$$

WAZ521-071610-
SIMCOE HIGHLANDS

CITY            SKY/WX      TMP DP  RH  WIND    PRES   REMARKS
#CENTERVILLE 1SWN/A         20  17  88  CALM    30.45R
#GOLDENDALE 1NE N/A         24  14  65  NE3     N/A
#GOLDENDALE 4W  N/A         23   5  45  E7      30.38R
#GOODNOE HILLS  N/A         20  15  81  E6      30.29R
#LYLE 6NE       N/A         23  21  92  CALM    30.42R
$$

WAZ026-071610-
KITTITAS VALLEY

CITY            SKY/WX      TMP DP  RH  WIND    PRES   REMARKS
#ELLENSBURG CWU N/A         24  13  62  SE7     30.42R
#ELLENSBURG 3NE N/A         23  16  74  CALM    28.45R
#ELLENSBURG 1E  N/A         24  N/A N/A SE1     N/A
#KITTITAS 4N    N/A         24  16  71  CALM    30.39R
#KITTITAS 3S    N/A         24  13  62  E7      30.47R
#THORP 6N       N/A         20  15  81  E6      30.51R
$$

WAZ027-071610-
YAKIMA VALLEY

CITY            SKY/WX      TMP DP  RH  WIND    PRES   REMARKS
SUNNYSIDE AP    CLOUDY      25  19  78  CALM    30.46R
YAKIMA-VAGABOND LGT SNOW SH 25  10  52  E10     30.39R
#DONALD 2NE     N/A         28   0  29  S1      29.12
#GRANDVIEW      N/A         26  16  65  CALM    30.51R
#MABTON         N/A         26  22  85  CALM    30.45R
#NACHES 2SW     N/A         25  16  68  CALM    30.37R
#TERRACE HTS    N/A         26  19  74  CALM    30.46R
#TOPPENISH      N/A         26  22  85  CALM    30.41R
#WEST VALLEY    N/A         28  20  71  CALM    30.48R
#W YAKIMA       N/A         26  15  63  CALM    30.50R
#WHITE SWAN 5E  N/A         23  20  88  CALM    30.51R
#WILEY CITY 3W  N/A         25  15  65  CALM    30.37R
$$

WAZ028-071610-
LOWER COLUMBIA BASIN...WASHINGTON

CITY            SKY/WX      TMP DP  RH  WIND    PRES   REMARKS
PROSSER AWOS    N/A         27  19  71  E6      30.49R
RICHLAND AWOS   CLOUDY      24  23  96  CALM    30.50R
#BENTON CITY    N/A         24  19  81  E2      30.42R
#CONNELL 5N     N/A         16  13  88  CALM    30.53R
#CONNELL 5NW    N/A         18  14  84  CALM    30.48R
#ELTOPIA 6NW    N/A         21  17  84  CALM    29.41R
#KAHLOTUS       N/A         16  13  88  S3      30.52R
#KENNEWICK 3S   N/A         23  18  81  CALM    30.53R
#PATERSON       N/A         23  18  81  CALM    30.49R
#SAGEMOOR 2W    N/A         21  17  84  CALM    30.35S
#TOUCHET 2S     N/A         21  18  88  CALM    30.51R
#WEST PASCO     N/A         24  20  84  CALM    30.53R
$$

WAZ029-071610-
FOOTHILLS OF THE BLUES...WASHINGTON

CITY            SKY/WX      TMP DP  RH  WIND    PRES   REMARKS
#CLYDE 6NW      N/A         19  16  88  CALM    30.51R
#DAYTON SCHOOL  N/A         20  13  74  CALM    30.39R
#LOWDEN 2SE     N/A         20  18  92  CALM    30.45R
#PLEASANT VIEW 1N/A         18  15  88  CALM    30.55R
#PRESCOTT       N/A         18  16  92  CALM    30.52R
#WHITMAN COLLEGEN/A         23  18  81  CALM    30.56R
#WAITSBURG 5S   N/A         20  17  88  CALM    30.61R
#WAITSBURG 8N   N/A         19  N/A N/A CALM    30.41S
#WHITMAN MISSIONN/A         21  19  92  CALM    30.53R
$$

WAZ030-071610-
BLUE MOUNTAINS...WASHINGTON

CITY            SKY/WX      TMP DP  RH  WIND    PRES   REMARKS
#DIXIE 5SE      N/A         18  16  92  CALM    30.22R
#SKI BLUEWOOD   N/A         12   9  87  CALM    30.19R
$$

ORZ009-041-WAZ024-071610-
COLUMBIA RIVER GORGE

CITY            SKY/WX      TMP DP  RH  WIND    PRES   REMARKS
HOOD RIVER AP   CLOUDY      28  25  88  NE6     30.42S
THE DALLES AP   CLOUDY      28  23  81  E7      30.46R
#ARLINGTON AIRPON/A         21  18  88  NE3     30.50R
#ARLINGTON HS   N/A         20  14  77  SE1     30.41S
#CELILO DOT     N/A         27  20  74  NE6     N/A
#LYLE           N/A         30  27  88  E9      30.48R
#MOSIER 1S      N/A         26  22  85  CALM    N/A
#MURDOCK        N/A         28  24  85  SE1     30.45R
#RUFUS DOT      N/A         24  20  84  S10     N/A
#SMITHVILLE     N/A         28  25  88  S3      30.41R

$$

ORZ510-071610-
NORTH CENTRAL OREGON

CITY            SKY/WX      TMP DP  RH  WIND    PRES   REMARKS
#ANTELOPE       N/A         11   8  87  CALM    30.35R
#CHENOWITH 1W   N/A         21  21  100 SE6     N/A
#COW CYN RST AREN/A         17  N/A N/A NE2     N/A
#DUFUR 9E       N/A         20  17  88  E2      30.49R
#GRASS VALLEY 1SN/A         12  10  91  CALM    30.24R
#KENT DOT       N/A         13   8  80  N3      N/A
#MAUPIN SCHOOL  N/A         23  19  84  CALM    30.43R
#MORO SCHOOL    N/A         11   9  91  CALM    30.35R
#SHANIKO 5WSW   N/A         15   8  73  N8      N/A
#SHANIKO 4NW    N/A         15  13  92  SE8     30.22R
#WAPANITIA AIRPON/A         20  18  92  CALM    30.48R
#WASCO DOT      N/A         15  12  88  SE1     N/A
#WASCO 5NE      N/A         16  13  88  CALM    30.48R
$$

ORZ511-071610-
CENTRAL OREGON

CITY            SKY/WX      TMP DP  RH  WIND    PRES   REMARKS
BEND AIRPORT    PTCLDY       0  -6  75  S3      30.25R
MADRAS AIRPORT  CLEAR       14  10  84  CALM    30.32S
PRINEVILLE AP   PTCLDY       3   0  87  CALM    30.27R
#ASHWOOD SCHOOL N/A         12   8  84  CALM    30.25R
#BEND 1SW       N/A          8   5  87  CALM    N/A
#BEND-AWBREY    N/A         11   8  87  CALM    30.43R
#BEND-KIM LN    N/A          7   4  87  CALM    30.16R
#CULVER         N/A         10   7  87  SW1     30.39R
#CULVER 8W      N/A         10   3  73  CALM    30.25R
#LAKE BILLY CHINN/A         15  N/A N/A S5      30.44R
#MADRAS 4S      N/A         15  -12 28  S3      30.36R
#POWELL BUTTE 3EN/A         13   8  80  NE3     N/A
#POWELL BUTTE   N/A         17   6  61  E1      30.17R
#PRINEVILLE 3N  N/A         10   6  83  E3      30.46R

$$


ORZ509-071610-
EAST SLOPES OF OREGON CASCADES

CITY            SKY/WX      TMP DP  RH  WIND    PRES   REMARKS
SISTERS AWOS    N/A         -2  -6  82  CALM    30.19R
#BLUE BOX PASS  N/A         17  N/A N/A CALM    N/A
#CAMP SHERMAN   N/A         13   9  84  CALM    30.51R
#LA PINE DOT    N/A         -7  -11 82  CALM    N/A
#LA PINE 4NW    N/A         -6  -11 78  CALM    30.51R
#LAVA BUTTE DOT N/A          5   1  83  CALM    N/A
#SISTERS AIRPOR N/A         -2  -4  91  CALM    30.17S
#SISTERS ODOT   N/A          0  N/A N/A CALM    N/A
#SISTERS 3N     N/A          0  -7  71  CALM    30.23S
#SUNRIVER       N/A         -1  -4  87  CALM    30.48R
#SUTTLE LK DOT  N/A         11  11  100 CALM    N/A
#TUMALO 3W      N/A         13  11  91  CALM    30.32R
#WANOGA BUTTE D N/A          7   4  87  W2      N/A

$$

ORZ044-071610-
LOWER COLUMBIA BASIN...OREGON

CITY            SKY/WX      TMP DP  RH  WIND    PRES   REMARKS
#BOARDMAN SCHOOLN/A         22  18  84  CALM    30.48R
#BOARDMAN 8SW   N/A         22  19  88  CALM    30.49R
#UMATILLA       N/A         22  15  74  CALM    30.44R
$$

ORZ507-071610-
NORTHERN FOOTHILLS OF THE BLUES

CITY            SKY/WX      TMP DP  RH  WIND    PRES   REMARKS
#ADAMS 3WNW     N/A         14  12  92  CALM    30.53R
#ATHENA         N/A         18  14  84  CALM    30.55R
#HELIX SCHOOL   N/A         15  13  92  CALM    30.54R
#HELIX 3N       N/A         20  17  88  CALM    30.33R
#HOLDMAN 5SE    N/A         18  15  88  CALM    30.38R
#HOLDMAN 6E     N/A         19  14  80  CALM    30.31R
#M-F GROVE ELEM N/A         22  13  68  CALM    30.40R
#M-FREEWATER 5SEN/A         21  15  77  E7      30.40R
#PENDLETON DNTN N/A         11   7  83  CALM    30.45R
#PDT AQUATIC CTRN/A         11   8  87  CALM    30.40S
#PDT SUNRIDGE   N/A          7   5  91  CALM    30.45R
#PENDLETON 7NW  N/A         16  10  77  SE2     31.38S
#PILOT ROCK 1S  N/A         15   3  58  SE5     30.37S
#PILOT ROCK     N/A         12   7  80  SW6     30.38R
#UMAPINE 2E     N/A         19  17  92  CALM    30.44R
#WESTON SCHOOL  N/A         19  11  70  CALM    30.28R

$$

ORZ508-071610-
SOUTHERN FOOTHILLS OF THE BLUES

CITY            SKY/WX      TMP DP  RH  WIND    PRES   REMARKS
LEXINGTON       MOCLEAR     14   9  80  SE9     30.41S
#AJAX           N/A         15   5  64  CALM    28.06R
#CONDON SCHOOL  N/A         16  13  88  CALM    30.22R
#CONDON 5W      N/A         17  14  88  CALM    30.22R
#HEPPNER EOC    N/A         12   6  76  SE9     30.44R
#HEPPNER 4NE    N/A         12   6  76  E3      30.50R
#LEXINGTON 2SE  N/A         16   9  73  SE10    30.37R
#MIKKALO        N/A         10   4  76  E3      30.47R
#OLEX 4N        N/A         16  13  88  CALM    30.39R
#RUGGS 5NE      N/A         10   8  91  CALM    30.46S
#RUGGS 2SW      N/A         14   8  76  SW7     30.51R

$$

ORZ502-503-071610-
BLUE MOUNTAINS

CITY            SKY/WX      TMP DP  RH  WIND    PRES   REMARKS
MEACHAM         PTCLDY      -11 -18 70  CALM    30.26R
#BATTLE MTN DOT N/A          2  -2  83  S1      N/A
#GREENHORN 9SW  N/A         -6  -8  91  CALM    26.46R
#HEPPNER 15SE   N/A          7   5  91  CALM    30.19R
#LADD CYN SMT   N/A         -9  -13 82  N3      N/A
#LADD CREEK ODOTN/A          0  -13 53  S6      N/A
#LONG CREEK HS  N/A          4   4  100 CALM    30.25R
#N POWDER DOT   N/A         -7  -10 86  NW2     N/A
#PIKES PEAK     N/A         16  13  88  CALM    27.99S
#TOLLGATE       N/A          9   6  87  CALM    30.00R
#TROY SCHOOL    N/A         15  11  84  S3      30.38R
#UKIAH          N/A         -11 -14 86  CALM    30.53R
#WESTON 4E      N/A         15  13  92  CALM    30.47R
$$

ORZ505-071610-
JOHN DAY BASIN

CITY            SKY/WX      TMP DP  RH  WIND    PRES   REMARKS
JOHN DAY        MOCLDY       9   5  83  E8      30.27R
#DAYVILLE SCHOOLN/A         15   8  73  E2      30.30R
#MITCHELL 8NW   N/A         15  11  84  CALM    30.43R
#MONUMENT HS    N/A          6   1  79  CALM    30.49R
#MT. VERNON 5SE N/A          8   5  87  CALM    30.19R
#SPRAY SCHOOL   N/A          9  N/A N/A CALM    N/A
$$

ORZ506-071610-
OCHOCO AND JOHN DAY HIGHLANDS

CITY            SKY/WX      TMP DP  RH  WIND    PRES   REMARKS
#BUCK CREEK DOT N/A         10   8  91  CALM    N/A
#HORSE RIDGE DO N/A         -14 -22 66  CALM    N/A
#KEYES SMT DOT  N/A          8   5  87  NW7     N/A
#PAULINA SCHOOL N/A          2  -2  83  CALM    N/A
#PINE MTN OBS   N/A          9   7  91  SE2     N/A
#SENECA         N/A         -1  N/A N/A CALM    N/A
#SENECA 9NW     N/A         -5  -8  86  CALM    30.50R
$$

ORZ049-071610-
GRANDE RONDE VALLEY

CITY            SKY/WX      TMP DP  RH  WIND    PRES   REMARKS
LA GRANDE       CLEAR        7   0  72  CALM    30.33R
#COVE           N/A          6   3  87  CALM    30.34R
#COVE SCHOOL    N/A          7   3  83  CALM    30.32R
#COVE 6NW       N/A          9   5  83  CALM    30.52R
#ELGIN 3N       N/A          1  -8  65  CALM    30.30R
#IMBLER SCHOOL  N/A          8   5  87  CALM    30.28R
#ISLAND CITY 4N N/A         27  26  96  CALM    30.39R
#LADD CYN DOT   N/A          7   3  83  SE14    N/A    WCI -10
#UNION 1S       N/A          8   4  83  CALM    30.53R
$$

ORZ050-071610-
WALLOWA COUNTY

CITY            SKY/WX      TMP DP  RH  WIND    PRES   REMARKS
#IMNAHA SCHOOL  N/A         21  13  71  SE2     30.36R
#IMNAHA 10S     N/A         16  11  80  SW3     30.28R
#JOSEPH 3N      N/A         -2  -9  71  CALM    30.25R
#JOSEPH 3W      N/A          7   0  72  CALM    30.03R
#LOSTINE        N/A          6   3  87  CALM    30.31R
#LOSTINE 3SE    N/A          7   4  87  S3      30.27R
#MT HOWARD 8000 N/A         -3  -7  82  CALM    29.86S
#PROMISE 1S     N/A          8   5  87  CALM    30.64R
#WALLOWA SCHOOL N/A          3   0  87  CALM    30.29R



$$



USA.gov is the U.S. government's official web portal to all federal, state and local government web resources and services.